This is the latest recevied weather packets stored in our database for station/object DB0SMU-12. If no packets are shown the sender has not sent any weather packets the latest 1 day(s).
| Time | Temp. | Humidity | Pressure | Rain* | Wind** | Luminosity | Snow |
|---|---|---|---|---|---|---|---|
| 1777971526 | 18.33° C | 61% | 1009.7 hPa | 0 mm | 1.34 m/s, 200° | - | - |
| 1777971345 | 18.33° C | 60% | 1009.7 hPa | 0 mm | 1.34 m/s, 215° | - | - |
| 1777971164 | 18.33° C | 61% | 1009.8 hPa | 0 mm | 1.34 m/s, 145° | - | - |
| 1777970984 | 17.78° C | 60% | 1009.7 hPa | 0 mm | 0.45 m/s, 164° | - | - |
| 1777970803 | 18.33° C | 59% | 1009.8 hPa | 0 mm | 0.45 m/s, 352° | - | - |
| 1777970622 | 18.33° C | 59% | 1009.8 hPa | 0 mm | 0.45 m/s, 242° | - | - |
| 1777970441 | 18.33° C | 60% | 1009.8 hPa | 0 mm | 1.34 m/s, 261° | - | - |
| 1777970260 | 18.33° C | 60% | 1009.9 hPa | 0 mm | 0.89 m/s, 210° | - | - |
| 1777970079 | 18.33° C | 62% | 1009.9 hPa | 0 mm | 1.79 m/s, 211° | - | - |
| 1777969898 | 17.78° C | 62% | 1010 hPa | 0 mm | 1.34 m/s, 166° | - | - |
| 1777969717 | 18.33° C | 63% | 1010 hPa | 0 mm | 0.89 m/s, 120° | - | - |
| 1777969536 | 18.33° C | 62% | 1010.1 hPa | 0 mm | 1.34 m/s, 175° | - | - |
| 1777969355 | 17.78° C | 62% | 1010 hPa | 0 mm | 0.89 m/s, 217° | - | - |
| 1777969175 | 17.78° C | 62% | 1009.9 hPa | 0 mm | 1.79 m/s, 247° | - | - |
| 1777968994 | 17.78° C | 63% | 1010 hPa | 0 mm | 1.34 m/s, 191° | - | - |
| 1777968813 | 17.78° C | 62% | 1010 hPa | 0 mm | 1.34 m/s, 198° | - | - |
| 1777968632 | 17.22° C | 61% | 1010 hPa | 0 mm | 0.89 m/s, 226° | - | - |
| 1777968451 | 17.22° C | 62% | 1009.9 hPa | 0 mm | 0.89 m/s, 217° | - | - |
| 1777968270 | 17.22° C | 63% | 1010 hPa | 0 mm | 0.89 m/s, 221° | - | - |
| 1777968089 | 16.67° C | 64% | 1010 hPa | 0 mm | 0.45 m/s, 92° | - | - |
| 1777967908 | 16.67° C | 63% | 1009.9 hPa | 0 mm | 0.89 m/s, 75° | - | - |
| 1777967727 | 16.67° C | 65% | 1010 hPa | 0 mm | 1.34 m/s, 137° | - | - |
| 1777967546 | 16.67° C | 68% | 1010.1 hPa | 0 mm | 0.89 m/s, 161° | - | - |
| 1777967365 | 16.67° C | 68% | 1010 hPa | 0 mm | 1.79 m/s, 233° | - | - |
| 1777967187 | 16.11° C | 66% | 1010.1 hPa | 0 mm | 1.34 m/s, 209° | - | - |
* Rain latest hour (hover to see other rain measurements)
** Current wind speed in m/s (hover to see current wind gust speed)